North Adams, MA

4:41 AM EST on February 24, 2017 (GMT -0500)
Harriman And West

Weather History for KAQW - December, 2012

Change the Weather History Date:

Wednesday, December 19, 2012

  Actual Average Record
Temperature  
Mean Temperature 37 °F -  
Max Temperature 39 °F 34 °F 45 °F (1997)
Min Temperature 35 °F 19 °F 3 °F (2016)
Degree Days  
Heating Degree Days 28    
Moisture  
Dew Point 28 °F    
Average Humidity 68    
Maximum Humidity 82    
Minimum Humidity 60    
Precipitation  
Precipitation 0.00 in - - ()
Sea Level Pressure  
Sea Level Pressure 29.78 in    
Wind  
Wind Speed 13 mph (West)    
Max Wind Speed 18 mph    
Max Gust Speed 29 mph    
Visibility 10 miles    
Events      
Averages and records for this station are not official NWS values.
T = Trace of Precipitation, MM = Missing Value Source: NWS Daily Summary

Daily Weather History Graph

Daily Weather History Graph

Search for Another Location

Airport or City:

Trip Planner

Search our weather history database for the weather conditions in past years. The results will help you decide how hot, cold, wet, or windy it might be!

Date:

Astronomy

Dec. 19, 2012 Rise Set
Actual Time 7:18 AM EST 4:21 PM EST
Civil Twilight 6:46 AM EST 4:53 PM EST
Nautical Twilight 6:10 AM EST 5:29 PM EST
Astronomical Twilight 5:36 AM EST 6:03 PM EST
Moon 11:17 AM EST (12/19) 11:56 PM EST (12/19)
Length of Visible Light 10h 06m
Length of Day
9h 02m
Waxing Crescent, 45% of the Moon is Illuminated
Dec 19
Waxing Crescent
Dec 20
First Quarter
Dec 28
Full
Jan 4
Last Quarter
Jan 11
New

Hourly Weather History & Observations

Time (EST) Temp. Windchill Dew Point Humidity Pressure Visibility Wind Dir Wind Speed Gust Speed Precip Events Conditions
12:39 AM 37.4 °F 29.8 °F 30.2 °F 75% 29.54 in 10.0 mi West 11.5 mph 21.9 mph N/A   Overcast
12:52 AM 37.0 °F 28.5 °F 30.9 °F 79% 29.55 in 10.0 mi West 13.8 mph 21.9 mph N/A   Overcast
1:06 AM 37.4 °F 28.9 °F 30.2 °F 75% 29.54 in 10.0 mi West 13.8 mph 23.0 mph N/A   Overcast
1:52 AM 37.0 °F 27.7 °F 30.0 °F 76% 29.57 in 10.0 mi West 16.1 mph 23.0 mph N/A   Overcast
2:52 AM 37.0 °F 28.1 °F 30.0 °F 76% 29.59 in 10.0 mi West 15.0 mph 19.6 mph N/A   Overcast
3:26 AM 37.4 °F 29.8 °F 30.2 °F 75% 29.58 in 10.0 mi West 11.5 mph - N/A   Overcast
3:36 AM 37.4 °F 29.3 °F 30.2 °F 75% 29.58 in 10.0 mi West 12.7 mph 19.6 mph N/A   Overcast
3:52 AM 37.0 °F 29.8 °F 30.0 °F 76% 29.60 in 10.0 mi West 10.4 mph - N/A   Overcast
4:52 AM 37.0 °F 27.0 °F 30.0 °F 76% 29.60 in 10.0 mi West 18.4 mph 25.3 mph N/A   Overcast
5:52 AM 36.0 °F 25.6 °F 30.9 °F 82% 29.62 in 8.0 mi West 18.4 mph - N/A   Overcast
6:52 AM 37.0 °F 27.4 °F 28.9 °F 73% 29.65 in 10.0 mi West 17.3 mph 25.3 mph N/A   Overcast
7:52 AM 37.9 °F 29.2 °F 28.0 °F 68% 29.67 in 10.0 mi WSW 15.0 mph 23.0 mph N/A   Overcast
8:52 AM 37.9 °F 30.0 °F 28.0 °F 68% 29.69 in 10.0 mi West 12.7 mph - N/A   Overcast
9:52 AM 39.0 °F 31.8 °F 28.0 °F 65% 29.71 in 10.0 mi West 11.5 mph 19.6 mph N/A   Overcast
10:52 AM 39.0 °F 30.6 °F 28.0 °F 65% 29.72 in 10.0 mi West 15.0 mph 24.2 mph N/A   Overcast
11:52 AM 39.9 °F 32.5 °F 28.0 °F 63% 29.75 in 10.0 mi West 12.7 mph 21.9 mph N/A   Overcast
12:47 PM 39.2 °F 31.2 °F 28.4 °F 65% 29.76 in 10.0 mi West 13.8 mph - N/A   Overcast
12:52 PM 39.9 °F 31.8 °F 28.9 °F 65% 29.77 in 10.0 mi West 15.0 mph 21.9 mph N/A   Overcast
1:52 PM 39.9 °F 32.1 °F 28.9 °F 65% 29.79 in 10.0 mi West 13.8 mph 21.9 mph N/A   Overcast
2:15 PM 39.2 °F 31.2 °F 28.4 °F 65% 29.79 in 10.0 mi West 13.8 mph 23.0 mph N/A   Overcast
2:52 PM 39.9 °F 31.1 °F 27.0 °F 60% 29.83 in 10.0 mi West 17.3 mph 28.8 mph N/A   Overcast
3:52 PM 39.0 °F 31.0 °F 27.0 °F 62% 29.87 in 10.0 mi West 13.8 mph 25.3 mph N/A   Overcast
4:52 PM 39.0 °F 31.8 °F 27.0 °F 62% 29.91 in 10.0 mi West 11.5 mph 19.6 mph N/A   Overcast
5:52 PM 37.9 °F 30.0 °F 26.1 °F 62% 29.94 in 10.0 mi West 12.7 mph 18.4 mph N/A   Overcast
6:52 PM 37.9 °F 30.0 °F 25.0 °F 60% 29.97 in 10.0 mi West 12.7 mph - N/A   Overcast
7:52 PM 37.0 °F 30.4 °F 25.0 °F 62% 30.01 in 10.0 mi West 9.2 mph 18.4 mph N/A   Overcast
8:10 PM 37.4 °F 30.8 °F 24.8 °F 60% 30.01 in 10.0 mi West 9.2 mph - N/A   Overcast
8:42 PM 35.6 °F 29.9 °F 24.8 °F 65% 30.01 in 10.0 mi WSW 6.9 mph - N/A   Overcast
8:52 PM 36.0 °F 30.3 °F 24.1 °F 62% 30.04 in 10.0 mi WSW 6.9 mph - N/A   Overcast
9:52 PM 36.0 °F 29.0 °F 24.1 °F 62% 30.06 in 10.0 mi WSW 9.2 mph - N/A   Overcast
10:52 PM 35.1 °F 30.1 °F 24.1 °F 64% 30.09 in 10.0 mi West 5.8 mph - N/A   Overcast
11:52 PM 35.1 °F 31.0 °F 24.1 °F 64% 30.10 in 10.0 mi West 4.6 mph - N/A   Overcast